Regional Weather Roundup
Issued by NWS

Current Version | Previous Version | Text Only | Print | Product List | Glossary On
Versions: 1 2 3 4 5 6 7 8 9 10 11 12 13 14 15 16 17 18 19 20 21 22 23 24 25 26 27
000
ASUS45 KBOI 181010
RWRID

IDAHO REGIONAL WEATHER ROUNDUP
NATIONAL WEATHER SERVICE BOISE ID
400 AM MDT FRI AUG 18 2017

NOTE: "FAIR" INDICATES FEW OR NO CLOUDS BELOW 12000 FEET
WITH NO SIGNIFICANT WEATHER AND/OR OBSTRUCTIONS TO VISIBILITY

IDZ012-014-181100-
SOUTHWEST IDAHO


CITY           SKY/WX    TMP DP  RH WIND       PRES   REMARKS
BOISE          FAIR      62  39  42 SW5       30.05S
CALDWELL       FAIR      60  47  61 SW3       30.04S
MOUNTAIN HOME  FAIR      58  35  42 NW9       30.05S
$$

IDZ016-017-181100-
SOUTHCENTRAL IDAHO


CITY           SKY/WX    TMP DP  RH WIND       PRES   REMARKS
BURLEY         FAIR      57  42  57 SW10      30.11S
JEROME         FAIR      62  38  40 S6        30.11S
TWIN FALLS     FAIR      61  37  41 S14       30.12S
$$

IDZ019>023-181100-
SOUTHEAST IDAHO


CITY           SKY/WX    TMP DP  RH WIND       PRES   REMARKS
IDAHO FALLS    CLEAR     52  41  66 CALM      30.16S
POCATELLO      CLEAR     53  36  52 E5        30.15S
REXBURG        CLEAR     49  42  77 N6        30.17R
$$

IDZ006-010-011-018-031-032-181100-
CENTRAL IDAHO MOUNTAINS


CITY           SKY/WX    TMP DP  RH WIND       PRES   REMARKS
MCCALL         FAIR      50  39  66 CALM      30.18S
HAILEY         FAIR      55  41  58 NW10      30.18F
STANLEY          N/A     40  33  76 S3        30.30S
SALMON         CLEAR     51  41  68 CALM      30.17R
CHALLIS        FAIR      56  35  45 CALM      30.19S
$$

IDZ002-004-006-007-026-181100-
NORTHERN IDAHO


CITY           SKY/WX    TMP DP  RH WIND       PRES   REMARKS
LEWISTON       FAIR      65  41  41 CALM      30.03S
LOWELL           N/A     56  48  74 CALM      30.10R
COEUR D`ALENE  FAIR      57  46  66 CALM      30.06S
MULLAN PASS    FAIR      56  34  43 W5        30.22S
$$




USA.gov is the U.S. government's official web portal to all federal, state and local government web resources and services.